Location: Canet
(43.3261°N, 5.3723°E)
Time: 19:30:36
(UTC+00:00)

H-2A R/B - Pass Details

Date: 24 January 2021
Orbit: 734 x 836 km, 98.2° (Epoch: 07 March)

Event Time Altitude Azimuth Distance (km) Brightness Sun altitude
Rises 17:44:40 0° 145° (SE) 3,180 5.0 -11.9°
Reaches altitude 10° 17:47:01 10° 138° (SE) 2,272 4.2 -12.3°
Maximum altitude 17:51:41 41° 69° (ENE) 1,107 2.4 -13.1°
Drops below altitude 10° 17:56:29 10° 1° (N) 2,345 4.4 -13.9°
Sets 17:58:57 0° 354° (N) 3,295 5.2 -14.4°
